QPF
0.00 0.00 0.00 0.00 0.00 0.00 0.00 0.00 0.00 0.00 0.00 0.00 0.00 0.00 0.00 0.00 0.00 0.00 0.00 0.00 0.00 0.00 0.00 0.00 0.00 0.00 0.00 0.00 0.00 0.00 0.00 0.00 0.00 0.00 0.00 0.00 0.00 0.00 0.00 0.00 0.00 0.00 0.00 0.00 0.00 0.00 0.00 0.00 0.00
0.00 0.00 0.00 0.00 0.00 0.00 0.00 0.00 0.00 0.00 0.00 0.00 0.00 0.00 0.00 0.00 0.00 0.00 0.00 0.00 0.00 0.00 0.00 0.00 0.00 0.00 0.00 0.00 0.00 0.00 0.00 0.00 0.00 0.00 0.00 0.00 0.00 0.00 0.00 0.00 0.00 0.00 0.00 0.00 0.00 0.00 0.00 0.00 0.00
0.00 0.00 0.00 0.00 0.00 0.00 0.00 0.00 0.00 0.00 0.00 0.00 0.00 0.00 0.00 0.00 0.00 0.00 0.00 0.00 0.00 0.00 0.00 0.00 0.00 0.00 0.00 0.00 0.00 0.00 0.00 0.00 0.00 0.00 0.00 0.01 0.01 0.01 0.00 0.00 0.00 0.00 0.00 0.00 0.00 0.00 0.00 0.00 0.00
0.00 0.00 0.00 0.00 0.00 0.00 0.00 0.00 0.00 0.00 0.00 0.00 0.00 0.00 0.00 0.00 0.00 0.00 0.00 0.00 0.00 0.00 0.00 0.00 0.00 0.00 0.00 0.00 0.00 0.00 0.00 0.00 0.00 0.00 0.00 0.00 0.00 0.01 0.01 0.01 0.01 0.00 0.00 0.00 0.00 0.00 0.00 0.01 0.00
0.00 0.00 0.00 0.00 0.00 0.00 0.00 0.00 0.00 0.00 0.00 0.00 0.00 0.00 0.00 0.00 0.00 0.00 0.00 0.00 0.00 0.00 0.00 0.00 0.00 0.00 0.00 0.00 0.00 0.00 0.00 0.00 0.00 0.00 0.00 0.00 0.00 0.00 0.00 0.00 0.00 0.01 0.01 0.01 0.00 0.00 0.00 0.00 0.00
0.00 0.00 0.00 0.00 0.00 0.00 0.00 0.00 0.00 0.00 0.00 0.00 0.00 0.00 0.00 0.00 0.00 0.00 0.00 0.00 0.00 0.00 0.00 0.00 0.00 0.00 0.00 0.00 0.00 0.00 0.00 0.00 0.00 0.00 0.00 0.00 0.00 0.00 0.00 0.00 0.00 0.01 0.03 0.02 0.00 0.00 0.00 0.00 0.00
0.00 0.00 0.00 0.00 0.00 0.00 0.00 0.00 0.00 0.00 0.00 0.00 0.00 0.00 0.00 0.00 0.00 0.00 0.00 0.00 0.00 0.00 0.00 0.00 0.00 0.00 0.00 0.00 0.00 0.00 0.00 0.00 0.00 0.00 0.00 0.00 0.00 0.00 0.00 0.00 0.00 0.01 0.02 0.02 0.01 0.00 0.00 0.00 0.01
0.00 0.00 0.00 0.00 0.00 0.00 0.00 0.00 0.00 0.00 0.00 0.00 0.00 0.00 0.00 0.00 0.00 0.00 0.00 0.00 0.00 0.00 0.00 0.00 0.00 0.00 0.00 0.00 0.00 0.00 0.00 0.00 0.00 0.00 0.00 0.00 0.00 0.00 0.00 0.00 0.00 0.01 0.02 0.03 0.02 0.00 0.00 0.00 0.00
0.00 0.00 0.00 0.00 0.00 0.00 0.00 0.00 0.00 0.00 0.00 0.00 0.00 0.00 0.00 0.00 0.00 0.00 0.00 0.00 0.00 0.00 0.00 0.00 0.00 0.00 0.00 0.00 0.00 0.00 0.00 0.00 0.00 0.00 0.00 0.00 0.00 0.00 0.00 0.01 0.01 0.01 0.02 0.02 0.02 0.00 0.00 0.00 0.00
0.00 0.00 0.00 0.00 0.00 0.00 0.00 0.00 0.00 0.00 0.00 0.00 0.00 0.00 0.00 0.00 0.00 0.00 0.00 0.00 0.00 0.00 0.00 0.00 0.00 0.00 0.00 0.00 0.00 0.00 0.00 0.00 0.00 0.00 0.00 0.00 0.00 0.00 0.00 0.01 0.00 0.02 0.03 0.02 0.01 0.00 0.00 0.00 0.00
0.00 0.00 0.00 0.00 0.00 0.00 0.00 0.00 0.00 0.00 0.00 0.00 0.00 0.00 0.00 0.00 0.00 0.00 0.00 0.00 0.00 0.00 0.00 0.00 0.00 0.00 0.00 0.00 0.00 0.00 0.00 0.00 0.00 0.00 0.00 0.00 0.00 0.00 0.01 0.03 0.03 0.02 0.02 0.03 0.01 0.00 0.00 0.00 0.00
0.00 0.00 0.00 0.00 0.00 0.00 0.00 0.00 0.00 0.00 0.00 0.00 0.00 0.00 0.00 0.00 0.00 0.00 0.00 0.00 0.00 0.00 0.00 0.00 0.00 0.00 0.00 0.00 0.00 0.00 0.00 0.00 0.00 0.00 0.00 0.00 0.00 0.02 0.04 0.03 0.03 0.04 0.05 0.05 0.07 0.03 0.02 0.00 0.00
0.00 0.00 0.00 0.00 0.00 0.00 0.00 0.00 0.00 0.00 0.00 0.00 0.00 0.00 0.00 0.00 0.00 0.00 0.00 0.00 0.00 0.00 0.00 0.00 0.00 0.00 0.00 0.00 0.00 0.00 0.00 0.00 0.00 0.00 0.00 0.00 0.02 0.04 0.03 0.02 0.02 0.03 0.03 0.06 0.07 0.07 0.03 0.00 0.00
0.00 0.00 0.00 0.00 0.00 0.00 0.00 0.00 0.00 0.00 0.00 0.00 0.00 0.00 0.00 0.00 0.00 0.00 0.00 0.00 0.00 0.00 0.00 0.00 0.00 0.00 0.00 0.00 0.00 0.00 0.01 0.01 0.01 0.02 0.01 0.00 0.02 0.05 0.02 0.02 0.03 0.04 0.04 0.06 0.05 0.06 0.07 0.01 0.01
0.00 0.00 0.00 0.00 0.00 0.00 0.00 0.00 0.00 0.00 0.00 0.00 0.00 0.00 0.00 0.00 0.00 0.00 0.00 0.00 0.00 0.00 0.00 0.00 0.00 0.00 0.00 0.00 0.01 0.02 0.02 0.03 0.05 0.07 0.04 0.02 0.04 0.05 0.05 0.04 0.07 0.07 0.08 0.05 0.05 0.07 0.10 0.04 0.02
0.00 0.00 0.00 0.00 0.00 0.00 0.00 0.00 0.00 0.00 0.00 0.00 0.00 0.00 0.00 0.00 0.00 0.00 0.00 0.00 0.00 0.00 0.00 0.00 0.00 0.00 0.00 0.00 0.01 0.03 0.04 0.05 0.05 0.08 0.04 0.00 0.04 0.07 0.09 0.07 0.07 0.13 0.11 0.08 0.06 0.09 0.06 0.04 0.03
0.00 0.00 0.00 0.00 0.00 0.00 0.00 0.00 0.00 0.00 0.00 0.00 0.00 0.00 0.00 0.00 0.00 0.00 0.00 0.00 0.00 0.00 0.00 0.00 0.00 0.00 0.00 0.00 0.01 0.04 0.03 0.03 0.06 0.08 0.00 0.00 0.00 0.04 0.10 0.14 0.04 0.10 0.16 0.13 0.12 0.09 0.07 0.04 0.05
0.00 0.00 0.00 0.00 0.00 0.00 0.00 0.00 0.00 0.00 0.00 0.00 0.00 0.00 0.00 0.00 0.00 0.00 0.00 0.00 0.00 0.00 0.00 0.00 0.00 0.00 0.00 0.00 0.00 0.03 0.03 0.03 0.04 0.02 0.00 0.00 0.00 0.03 0.07 0.17 0.13 0.06 0.12 0.12 0.12 0.07 0.05 0.03 0.02
0.00 0.00 0.00 0.00 0.00 0.00 0.00 0.00 0.00 0.00 0.00 0.00 0.00 0.00 0.00 0.00 0.00 0.00 0.00 0.00 0.00 0.00 0.00 0.00 0.00 0.00 0.00 0.00 0.00 0.02 0.04 0.05 0.04 0.07 0.03 0.02 0.01 0.01 0.07 0.14 0.17 0.07 0.08 0.11 0.17 0.07 0.05 0.08 0.07
0.00 0.00 0.00 0.00 0.00 0.00 0.00 0.00 0.00 0.00 0.00 0.00 0.00 0.00 0.00 0.00 0.00 0.00 0.00 0.00 0.00 0.00 0.00 0.00 0.00 0.00 0.00 0.00 0.01 0.01 0.02 0.02 0.01 0.07 0.06 0.01 0.01 0.02 0.05 0.13 0.12 0.09 0.10 0.08 0.16 0.09 0.08 0.13 0.12
0.00 0.00 0.00 0.00 0.00 0.00 0.00 0.00 0.00 0.00 0.00 0.00 0.00 0.00 0.00 0.00 0.00 0.00 0.00 0.00 0.00 0.00 0.00 0.00 0.00 0.00 0.00 0.00 0.01 0.02 0.04 0.07 0.05 0.10 0.10 0.05 0.02 0.05 0.02 0.04 0.07 0.06 0.05 0.02 0.14 0.16 0.33 0.16 0.28
0.00 0.00 0.00 0.00 0.00 0.00 0.00 0.00 0.00 0.00 0.00 0.00 0.00 0.00 0.00 0.00 0.00 0.00 0.00 0.00 0.00 0.00 0.00 0.00 0.00 0.00 0.00 0.00 0.00 0.02 0.05 0.12 0.11 0.08 0.10 0.12 0.02 0.04 0.03 0.02 0.02 0.01 0.03 0.06 0.10 0.18 0.30 0.18 0.19
0.00 0.00 0.00 0.00 0.00 0.00 0.00 0.00 0.00 0.00 0.00 0.00 0.00 0.00 0.00 0.00 0.00 0.00 0.00 0.00 0.00 0.00 0.00 0.00 0.00 0.00 0.00 0.00 0.00 0.02 0.04 0.10 0.13 0.13 0.08 0.10 0.07 0.07 0.05 0.04 0.02 0.03 0.06 0.07 0.06 0.12 0.19 0.12 0.10
0.00 0.00 0.00 0.00 0.00 0.00 0.00 0.00 0.00 0.00 0.00 0.00 0.00 0.00 0.00 0.00 0.00 0.00 0.00 0.00 0.00 0.00 0.00 0.00 0.00 0.00 0.00 0.00 0.00 0.00 0.03 0.08 0.10 0.10 0.08 0.10 0.13 0.07 0.08 0.03 0.02 0.03 0.08 0.06 0.06 0.13 0.17 0.05 0.05
0.00 0.00 0.00 0.00 0.00 0.00 0.00 0.00 0.00 0.00 0.00 0.00 0.00 0.00 0.00 0.00 0.00 0.00 0.00 0.00 0.00 0.00 0.00 0.00 0.00 0.00 0.00 0.00 0.00 0.00 0.04 0.09 0.06 0.06 0.03 0.06 0.08 0.11 0.11 0.06 0.03 0.03 0.05 0.07 0.06 0.10 0.15 0.11 0.02
0.00 0.00 0.00 0.00 0.00 0.00 0.00 0.00 0.00 0.00 0.00 0.00 0.00 0.00 0.00 0.00 0.00 0.00 0.00 0.00 0.00 0.00 0.00 0.00 0.00 0.00 0.00 0.00 0.00 0.00 0.02 0.07 0.04 0.00 0.00 0.02 0.08 0.09 0.09 0.04 0.04 0.06 0.11 0.10 0.13 0.14 0.17 0.04 0.01
0.00 0.00 0.00 0.00 0.00 0.00 0.00 0.00 0.00 0.00 0.00 0.00 0.00 0.00 0.00 0.00 0.00 0.00 0.00 0.00 0.00 0.00 0.00 0.00 0.00 0.00 0.00 0.00 0.00 0.00 0.02 0.12 0.08 0.02 0.03 0.02 0.06 0.10 0.07 0.09 0.04 0.07 0.09 0.17 0.15 0.07 0.05 0.02 0.00
0.00 0.00 0.00 0.00 0.00 0.00 0.00 0.00 0.00 0.00 0.00 0.00 0.00 0.00 0.00 0.00 0.00 0.00 0.00 0.00 0.00 0.00 0.00 0.00 0.00 0.00 0.00 0.00 0.00 0.00 0.01 0.06 0.05 0.04 0.04 0.01 0.01 0.08 0.13 0.10 0.10 0.06 0.08 0.10 0.05 0.03 0.01 0.01 0.00
0.00 0.00 0.00 0.00 0.00 0.00 0.00 0.00 0.00 0.00 0.00 0.00 0.00 0.00 0.00 0.00 0.00 0.00 0.00 0.00 0.00 0.00 0.00 0.00 0.00 0.00 0.00 0.00 0.00 0.00 0.00 0.00 0.02 0.04 0.00 0.00 0.01 0.10 0.12 0.15 0.10 0.06 0.08 0.12 0.07 0.02 0.01 0.00 0.00
0.00 0.00 0.00 0.00 0.00 0.00 0.00 0.00 0.00 0.00 0.00 0.00 0.00 0.00 0.00 0.00 0.00 0.00 0.00 0.00 0.00 0.00 0.00 0.00 0.00 0.00 0.00 0.00 0.00 0.00 0.00 0.00 0.02 0.07 0.03 0.00 0.00 0.00 0.00 0.01 0.01 0.02 0.11 0.15 0.10 0.03 0.00 0.00 0.00
MSLP
1010.76 1010.33 1009.80 1008.08 1007.37 1004.69 1002.15 1001.40 1001.02 1000.36 1000.67 1001.50 1002.17 1002.87 1003.36 1003.58 1004.12 1005.87 1007.14 1007.52 1007.90 1008.51 1009.35 1010.25 1010.70 1011.20 1011.49 1011.80 1012.11 1012.23 1012.61 1012.93 1013.13 1013.21 1013.49 1013.58 1013.87 1013.91 1013.87 1013.94 1014.06 1014.10 1014.14 1014.19 1014.15 1014.04 1014.01 1013.82 1013.79
1009.40 1009.16 1008.36 1007.06 1005.93 1003.17 1001.33 1001.32 1000.69 1000.73 1001.04 1001.76 1002.41 1002.86 1003.18 1004.03 1004.81 1005.71 1006.86 1007.56 1007.81 1008.39 1009.39 1009.80 1010.48 1010.95 1011.26 1011.63 1011.92 1012.09 1012.36 1012.62 1012.87 1013.06 1013.16 1013.19 1013.44 1013.50 1013.54 1013.58 1013.74 1013.81 1013.92 1013.97 1013.83 1013.78 1013.69 1013.65 1013.57
1009.43 1007.96 1007.34 1005.66 1004.05 1002.21 1001.17 1001.26 1000.81 1000.92 1001.00 1001.70 1002.25 1002.50 1003.22 1004.80 1005.51 1006.15 1007.15 1007.63 1007.85 1008.11 1008.39 1009.12 1010.01 1010.48 1010.94 1011.25 1011.63 1011.88 1012.12 1012.35 1012.60 1012.67 1012.76 1012.83 1013.01 1013.15 1013.22 1013.28 1013.33 1013.44 1013.53 1013.62 1013.58 1013.49 1013.47 1013.45 1013.46
1008.32 1007.39 1006.82 1004.82 1002.67 1001.37 1001.00 1000.72 1000.93 1001.12 1001.18 1001.29 1001.92 1002.86 1003.94 1004.87 1005.24 1006.04 1006.98 1007.35 1007.51 1007.55 1007.92 1009.20 1009.87 1010.37 1010.81 1011.13 1011.39 1011.57 1011.78 1012.01 1012.15 1012.25 1012.27 1012.45 1012.53 1012.60 1012.74 1012.86 1013.07 1013.11 1013.16 1013.28 1013.27 1013.33 1013.36 1013.35 1013.44
1007.61 1006.55 1005.22 1003.69 1002.23 1001.58 1001.53 1000.74 1000.89 1001.28 1001.24 1001.14 1001.75 1002.76 1004.04 1005.27 1005.61 1006.04 1006.83 1007.35 1007.59 1007.81 1008.38 1009.43 1009.88 1010.35 1010.74 1011.01 1011.15 1011.31 1011.54 1011.76 1011.86 1011.88 1011.98 1012.11 1012.23 1012.32 1012.41 1012.47 1012.52 1012.55 1012.67 1012.78 1012.94 1013.06 1013.14 1013.22 1013.26
1006.76 1005.81 1004.76 1002.87 1001.29 1000.95 1000.85 1000.65 1001.17 1001.23 1001.19 1001.24 1001.73 1002.55 1004.04 1005.16 1005.54 1006.00 1006.46 1007.29 1007.60 1008.06 1008.60 1009.25 1010.01 1010.31 1010.61 1010.70 1010.95 1011.24 1011.50 1011.78 1011.93 1012.03 1011.97 1011.97 1012.05 1012.07 1012.04 1012.00 1012.01 1012.00 1012.03 1012.30 1012.53 1012.64 1012.83 1013.00 1013.10
1006.41 1005.37 1004.14 1002.95 1001.91 1000.98 1000.49 1000.43 1001.01 1001.09 1001.41 1001.72 1002.28 1002.98 1003.87 1004.72 1005.32 1005.82 1006.40 1007.17 1007.89 1008.30 1008.74 1009.04 1009.38 1009.83 1010.12 1010.30 1010.59 1011.06 1011.37 1011.64 1011.76 1011.83 1011.84 1011.80 1011.73 1011.60 1011.54 1011.50 1011.51 1011.46 1011.45 1011.82 1012.09 1012.29 1012.55 1012.78 1012.93
1005.93 1005.16 1004.18 1003.14 1001.86 1000.73 1000.07 1000.54 1000.53 1000.72 1001.23 1001.82 1002.42 1002.86 1003.64 1004.57 1005.34 1005.97 1006.52 1006.91 1007.47 1007.87 1008.27 1008.68 1008.85 1009.04 1009.46 1010.02 1010.52 1010.81 1010.92 1011.08 1011.29 1011.25 1011.30 1011.39 1011.29 1011.16 1011.03 1010.98 1011.04 1011.04 1010.95 1011.27 1011.70 1011.93 1012.28 1012.51 1012.68
1005.48 1004.92 1003.62 1002.64 1001.38 1000.50 1000.32 1000.22 1000.13 1000.29 1000.96 1001.59 1001.98 1002.68 1003.71 1004.40 1005.33 1005.73 1006.29 1006.39 1006.62 1007.03 1007.62 1008.16 1008.51 1009.08 1009.49 1009.63 1009.78 1010.30 1010.27 1010.59 1010.72 1010.71 1010.80 1010.86 1010.92 1010.66 1010.35 1010.15 1010.21 1010.30 1010.52 1010.79 1011.30 1011.53 1011.95 1012.17 1012.37
1004.75 1004.13 1003.06 1002.38 1001.31 1000.84 1000.63 1000.66 1000.63 1000.64 1000.54 1000.75 1001.35 1002.33 1003.39 1004.19 1004.87 1005.36 1005.79 1006.16 1006.22 1006.53 1007.20 1007.88 1008.62 1009.27 1009.74 1009.70 1009.51 1009.57 1009.63 1009.91 1010.37 1010.64 1010.61 1010.79 1010.73 1010.59 1010.31 1009.94 1009.93 1009.88 1010.25 1010.56 1010.85 1011.27 1011.60 1011.85 1012.01
1003.90 1003.09 1002.79 1002.11 1001.55 1001.24 1001.06 1000.74 1000.77 1000.25 1000.30 1000.58 1001.28 1001.79 1003.00 1003.94 1004.42 1004.93 1005.26 1005.44 1006.22 1006.94 1007.36 1008.03 1008.74 1009.24 1009.73 1009.80 1009.58 1009.59 1009.50 1009.77 1010.05 1010.33 1010.41 1010.55 1010.53 1010.30 1009.90 1009.74 1009.74 1009.87 1009.98 1010.46 1010.71 1010.97 1011.27 1011.44 1011.59
1003.11 1002.28 1001.85 1001.47 1001.26 1001.35 1001.08 1000.74 1000.49 1000.29 1000.38 1000.59 1001.00 1001.74 1002.49 1003.16 1003.86 1004.70 1005.14 1005.46 1006.13 1006.78 1007.57 1008.15 1008.71 1009.19 1009.52 1009.67 1009.73 1009.36 1009.29 1009.54 1009.75 1009.72 1009.98 1010.27 1010.22 1010.13 1009.94 1009.73 1009.58 1009.71 1009.84 1010.21 1010.45 1010.60 1010.77 1010.92 1010.94
1002.28 1001.52 1001.11 1000.90 1001.10 1001.28 1000.57 1000.16 1000.08 1000.07 1000.20 1000.48 1000.92 1001.58 1002.11 1002.68 1003.31 1004.08 1004.84 1005.43 1006.29 1007.11 1007.63 1008.26 1008.81 1009.12 1009.45 1009.64 1009.59 1009.55 1009.62 1009.58 1009.40 1009.61 1009.54 1009.69 1009.80 1009.84 1009.78 1009.57 1009.48 1009.38 1009.40 1009.92 1010.36 1010.47 1010.62 1010.64 1010.58
1001.53 1001.06 1000.60 1000.81 1000.77 1000.29 999.96 999.74 999.95 999.93 1000.23 1000.45 1000.98 1001.47 1001.91 1002.22 1002.85 1003.88 1004.72 1005.64 1006.48 1007.21 1007.74 1008.20 1008.72 1008.97 1009.18 1009.34 1009.42 1009.42 1009.35 1009.29 1009.29 1009.22 1009.16 1008.84 1009.18 1009.50 1009.57 1009.45 1009.34 1009.28 1009.24 1009.50 1009.96 1010.01 1010.29 1010.25 1010.28
1001.29 1000.88 1000.43 1000.03 999.90 999.75 999.78 999.31 999.39 999.85 999.84 1000.18 1000.38 1000.78 1001.35 1001.98 1002.68 1003.39 1004.46 1005.70 1006.51 1007.10 1007.66 1008.14 1008.41 1008.59 1008.83 1008.93 1008.89 1008.98 1008.98 1008.95 1009.11 1008.93 1009.01 1008.98 1009.03 1009.18 1009.26 1009.18 1009.08 1009.06 1009.04 1009.37 1009.63 1009.75 1010.10 1009.91 1010.00
1001.23 1000.94 999.89 999.37 999.15 998.72 998.98 998.58 999.01 999.30 999.11 999.65 999.68 1000.11 1000.62 1001.39 1002.01 1003.02 1004.24 1005.58 1006.54 1007.21 1007.48 1007.92 1008.12 1008.28 1008.46 1008.61 1008.65 1008.66 1008.65 1008.64 1008.70 1008.52 1008.71 1008.86 1008.79 1008.76 1008.95 1008.91 1008.78 1008.74 1008.87 1009.19 1009.50 1009.77 1010.01 1009.88 1010.07
1000.85 999.94 999.41 998.60 998.12 997.61 997.37 997.94 998.63 998.78 998.63 998.66 998.98 999.41 999.89 1000.54 1001.69 1003.07 1004.21 1005.51 1006.49 1007.19 1007.49 1007.74 1007.97 1008.25 1008.35 1008.38 1008.18 1008.46 1008.34 1008.22 1008.32 1008.42 1008.58 1008.66 1008.62 1008.26 1008.41 1008.59 1008.51 1008.38 1008.79 1009.09 1009.42 1009.63 1009.81 1009.93 1010.13
999.98 999.24 998.74 997.98 997.26 996.57 996.92 997.37 997.76 997.92 997.95 998.12 998.43 998.45 998.94 999.93 1001.20 1002.88 1004.26 1005.51 1006.44 1007.12 1007.46 1007.77 1007.96 1008.07 1008.24 1008.08 1007.85 1008.13 1008.20 1007.98 1008.08 1008.21 1008.40 1008.44 1008.36 1008.00 1008.14 1008.32 1008.33 1008.41 1008.66 1008.90 1009.25 1009.54 1009.47 1009.69 1009.85
999.62 998.64 997.68 996.75 996.11 997.57 997.18 996.85 996.92 997.10 997.40 997.34 997.37 997.61 998.26 999.30 1000.63 1002.56 1004.24 1005.44 1006.36 1007.05 1007.34 1007.60 1007.64 1007.86 1008.06 1007.87 1007.71 1007.80 1007.83 1007.82 1007.86 1008.06 1007.98 1008.00 1007.97 1007.97 1007.92 1008.04 1008.12 1008.22 1008.38 1008.63 1008.89 1009.19 1009.51 1009.82 1009.94
999.10 998.37 997.43 996.72 996.22 996.30 996.26 996.19 996.54 996.76 996.76 996.77 996.76 997.12 997.65 998.84 1000.64 1002.46 1004.20 1005.38 1006.31 1006.96 1007.21 1007.40 1007.53 1007.64 1007.83 1007.56 1007.54 1007.65 1007.55 1007.56 1007.55 1007.84 1007.82 1007.51 1007.50 1007.65 1007.79 1007.91 1007.93 1008.03 1008.23 1008.44 1008.62 1008.93 1009.50 1009.91 1010.19
998.14 997.70 997.38 996.88 996.65 996.59 996.43 996.23 996.32 996.07 995.68 995.64 995.78 996.38 997.34 998.80 1000.55 1002.27 1003.97 1005.25 1006.17 1006.64 1006.95 1007.16 1007.34 1007.61 1007.71 1007.63 1007.55 1007.42 1007.50 1007.54 1007.51 1007.67 1007.74 1007.58 1007.49 1007.59 1007.68 1007.75 1008.01 1008.16 1008.24 1008.44 1008.65 1009.17 1009.57 1010.00 1010.07
996.80 996.97 996.78 996.73 997.03 996.83 996.79 995.98 995.93 995.70 995.18 994.81 995.21 995.91 996.96 998.51 1000.10 1001.90 1003.57 1004.97 1005.81 1006.36 1006.72 1006.93 1007.24 1007.48 1007.59 1007.72 1007.47 1007.65 1007.85 1007.84 1007.66 1007.61 1007.73 1007.65 1007.49 1007.58 1007.79 1007.79 1007.86 1007.90 1008.14 1008.31 1008.92 1009.38 1010.03 1010.41 1010.67
995.63 995.88 995.97 996.46 997.04 997.18 997.35 996.99 995.94 995.38 994.53 994.21 994.91 995.47 996.38 997.91 999.67 1001.44 1003.10 1004.49 1005.45 1005.96 1006.50 1006.86 1007.14 1007.37 1007.54 1007.68 1007.78 1007.78 1007.84 1007.91 1007.78 1007.63 1007.67 1007.89 1007.79 1007.77 1007.79 1007.97 1007.86 1008.01 1008.23 1008.43 1008.91 1009.28 1010.08 1010.28 1010.67
995.14 995.37 995.81 996.61 997.01 996.77 996.90 996.77 995.67 994.75 994.32 994.43 994.82 995.16 996.23 997.98 999.66 1001.42 1003.00 1004.24 1005.13 1005.73 1006.32 1006.73 1007.01 1007.29 1007.45 1007.42 1007.71 1007.78 1008.01 1008.00 1007.87 1007.81 1007.96 1008.08 1008.01 1007.93 1007.87 1008.04 1008.08 1008.30 1008.38 1008.45 1008.80 1009.17 1009.52 1009.76 1010.23
994.29 994.84 995.70 996.60 996.84 996.49 996.41 995.80 994.63 994.04 994.10 994.35 994.92 995.58 996.73 998.24 999.85 1001.45 1002.84 1003.95 1004.86 1005.56 1006.06 1006.59 1006.88 1007.22 1007.38 1007.36 1007.71 1007.83 1008.26 1008.27 1008.21 1008.20 1008.29 1008.25 1008.21 1008.09 1008.20 1008.32 1008.36 1008.45 1008.50 1008.62 1008.87 1009.20 1009.46 1009.88 1010.42
993.02 994.55 994.99 995.72 996.18 995.91 994.71 994.46 993.73 993.78 993.94 994.51 995.17 995.95 997.23 998.60 1000.09 1001.45 1002.72 1003.73 1004.58 1005.32 1005.89 1006.31 1006.63 1007.06 1007.32 1007.39 1007.72 1007.85 1008.46 1008.57 1008.52 1008.53 1008.62 1008.48 1008.39 1008.34 1008.43 1008.46 1008.45 1008.52 1008.65 1008.90 1009.03 1009.22 1009.55 1010.25 1010.76
992.51 993.50 994.83 995.60 995.61 995.41 994.61 994.09 993.52 993.30 993.82 994.37 995.06 996.22 997.56 998.96 1000.26 1001.44 1002.60 1003.53 1004.26 1005.10 1005.75 1006.07 1006.45 1006.85 1007.16 1007.48 1007.76 1007.88 1008.39 1008.53 1008.68 1008.60 1008.52 1008.66 1008.49 1008.45 1008.50 1008.49 1008.44 1008.59 1008.88 1009.18 1009.55 1009.79 1010.31 1010.82 1011.28
991.74 993.14 994.47 995.26 995.57 995.35 994.63 993.63 992.77 993.31 993.69 994.23 995.31 996.59 997.96 999.17 1000.37 1001.44 1002.47 1003.29 1004.04 1004.86 1005.60 1006.05 1006.36 1006.77 1007.11 1007.40 1007.52 1007.76 1008.17 1008.34 1008.45 1008.54 1008.57 1008.80 1008.62 1008.56 1008.62 1008.71 1008.63 1008.94 1009.17 1009.38 1009.85 1010.49 1010.95 1011.42 1012.12
991.56 991.97 993.15 994.58 995.07 994.89 994.58 993.33 992.22 992.92 993.80 994.88 995.67 996.60 998.12 999.14 1000.27 1001.26 1002.18 1003.14 1003.92 1004.65 1005.37 1006.02 1006.33 1006.64 1007.01 1007.34 1007.59 1007.72 1007.99 1008.15 1008.43 1008.61 1008.72 1009.00 1008.81 1008.86 1008.83 1009.01 1009.07 1009.22 1009.54 1009.94 1010.19 1010.82 1011.44 1012.05 1012.71
990.81 991.63 992.40 993.53 994.27 994.29 993.85 993.36 992.90 993.24 993.79 994.58 995.65 996.77 998.15 998.97 1000.04 1000.89 1001.79 1002.85 1003.64 1004.45 1005.06 1005.81 1006.13 1006.42 1006.87 1007.20 1007.55 1007.83 1008.02 1008.28 1008.76 1009.00 1009.01 1009.20 1009.37 1009.36 1009.21 1009.30 1009.43 1009.70 1010.04 1010.40 1010.70 1011.24 1011.86 1012.46 1013.25
Thickness
5793 5796 5798 5800 5766 5785 5789 5799 5821 5815 5807 5810 5813 5796 5785 5788 5770 5742 5783 5785 5780 5772 5766 5756 5749 5742 5738 5732 5727 5723 5716 5710 5706 5704 5700 5698 5693 5690 5689 5688 5686 5687 5687 5687 5688 5693 5697 5702 5705
5802 5802 5801 5790 5761 5767 5794 5811 5803 5809 5811 5809 5806 5797 5787 5768 5785 5779 5775 5780 5779 5769 5760 5756 5746 5739 5735 5728 5722 5717 5712 5707 5702 5698 5694 5692 5688 5686 5682 5681 5680 5679 5678 5679 5681 5685 5690 5695 5699
5799 5809 5783 5779 5776 5775 5787 5803 5806 5809 5816 5804 5795 5800 5786 5767 5780 5776 5778 5774 5770 5766 5762 5757 5745 5738 5732 5726 5719 5713 5707 5702 5696 5693 5689 5686 5682 5679 5677 5673 5671 5671 5670 5671 5673 5677 5681 5687 5691
5799 5796 5790 5772 5778 5808 5806 5812 5810 5802 5813 5810 5799 5779 5782 5793 5784 5784 5779 5774 5769 5765 5758 5751 5742 5735 5727 5721 5715 5709 5704 5698 5693 5688 5685 5679 5675 5672 5669 5667 5662 5661 5662 5663 5665 5667 5672 5678 5683
5800 5790 5769 5771 5787 5801 5804 5816 5811 5798 5803 5805 5796 5775 5767 5780 5788 5782 5774 5769 5761 5758 5749 5740 5734 5728 5722 5716 5712 5706 5700 5694 5688 5683 5679 5673 5667 5664 5661 5659 5656 5654 5654 5656 5658 5660 5664 5669 5675
5776 5787 5761 5767 5797 5807 5812 5815 5802 5800 5803 5803 5791 5780 5768 5780 5781 5776 5773 5763 5760 5751 5745 5736 5729 5723 5716 5713 5706 5699 5693 5686 5679 5674 5670 5666 5661 5657 5653 5651 5649 5648 5649 5649 5650 5654 5658 5662 5667
5769 5768 5764 5776 5782 5794 5807 5817 5796 5795 5792 5788 5794 5766 5772 5770 5782 5776 5768 5761 5752 5746 5739 5733 5727 5722 5716 5710 5703 5693 5687 5679 5672 5667 5663 5660 5656 5652 5647 5644 5642 5643 5644 5644 5644 5647 5651 5655 5660
5780 5772 5762 5773 5774 5785 5816 5807 5809 5799 5784 5803 5795 5765 5758 5769 5773 5768 5762 5757 5752 5746 5739 5732 5727 5720 5711 5706 5699 5689 5682 5674 5668 5663 5659 5654 5650 5645 5641 5638 5637 5637 5639 5639 5638 5641 5645 5649 5654
5790 5752 5752 5767 5781 5793 5813 5800 5815 5817 5792 5791 5786 5778 5778 5779 5772 5762 5754 5750 5747 5742 5736 5731 5725 5714 5705 5699 5693 5685 5680 5671 5664 5660 5653 5647 5642 5639 5637 5636 5635 5635 5634 5635 5634 5636 5639 5643 5648
5768 5751 5761 5786 5797 5790 5799 5796 5798 5793 5790 5784 5780 5779 5779 5775 5766 5754 5747 5742 5741 5738 5732 5727 5716 5706 5697 5692 5688 5683 5678 5669 5660 5653 5647 5639 5634 5630 5628 5629 5628 5630 5629 5629 5630 5631 5634 5638 5644
5771 5754 5772 5782 5793 5794 5788 5790 5797 5788 5776 5785 5773 5777 5768 5766 5760 5753 5748 5746 5736 5730 5725 5718 5709 5701 5691 5686 5682 5676 5672 5664 5656 5649 5642 5633 5627 5624 5624 5624 5623 5622 5623 5621 5623 5627 5630 5635 5641
5755 5776 5781 5785 5791 5785 5779 5791 5782 5786 5782 5793 5786 5785 5774 5765 5758 5751 5746 5743 5736 5729 5720 5713 5705 5696 5688 5681 5676 5672 5668 5660 5653 5647 5638 5628 5624 5619 5619 5619 5618 5616 5615 5615 5618 5623 5629 5634 5641
5763 5776 5787 5790 5785 5782 5790 5781 5782 5781 5792 5793 5786 5780 5771 5765 5760 5755 5748 5742 5731 5718 5712 5705 5698 5690 5684 5676 5671 5666 5659 5654 5649 5641 5635 5626 5620 5614 5614 5615 5612 5612 5613 5612 5614 5619 5626 5633 5641
5777 5778 5782 5781 5779 5786 5778 5780 5781 5784 5788 5781 5776 5771 5769 5765 5759 5750 5744 5733 5724 5714 5707 5702 5693 5688 5682 5674 5668 5662 5658 5652 5645 5638 5632 5627 5617 5612 5612 5611 5609 5609 5611 5611 5612 5619 5623 5632 5640
5773 5757 5770 5777 5781 5777 5784 5767 5769 5785 5785 5774 5772 5770 5769 5764 5759 5751 5743 5728 5720 5712 5705 5697 5693 5688 5681 5674 5669 5662 5658 5650 5642 5637 5630 5623 5615 5611 5610 5608 5607 5607 5609 5609 5611 5619 5624 5633 5640
5750 5753 5741 5773 5781 5787 5780 5746 5776 5787 5783 5771 5773 5772 5767 5762 5759 5752 5741 5727 5718 5708 5702 5696 5691 5686 5680 5673 5667 5662 5657 5651 5645 5640 5631 5622 5616 5613 5610 5608 5606 5607 5608 5609 5612 5616 5621 5630 5638
5742 5729 5741 5761 5788 5788 5786 5757 5773 5786 5784 5776 5773 5772 5770 5762 5756 5746 5737 5725 5715 5706 5699 5693 5689 5683 5677 5672 5667 5661 5657 5652 5645 5637 5630 5623 5617 5617 5614 5609 5608 5608 5608 5607 5609 5615 5622 5628 5636
5729 5737 5750 5753 5781 5794 5778 5767 5779 5783 5782 5775 5776 5775 5771 5763 5752 5744 5733 5722 5713 5703 5697 5690 5686 5681 5675 5671 5668 5661 5655 5652 5645 5638 5631 5624 5620 5619 5615 5611 5610 5610 5610 5610 5612 5617 5625 5631 5639
5748 5751 5756 5779 5801 5766 5768 5771 5779 5786 5780 5778 5779 5779 5772 5762 5757 5744 5729 5718 5708 5699 5694 5689 5685 5680 5673 5669 5665 5660 5652 5649 5645 5638 5632 5627 5622 5619 5617 5615 5614 5614 5614 5615 5617 5622 5625 5630 5638
5745 5744 5752 5776 5793 5785 5778 5774 5781 5783 5778 5778 5777 5775 5774 5761 5748 5737 5723 5713 5703 5695 5691 5688 5683 5679 5673 5672 5667 5660 5656 5651 5647 5639 5634 5631 5627 5622 5619 5617 5617 5617 5616 5619 5622 5626 5627 5631 5638
5743 5742 5747 5756 5776 5781 5772 5759 5766 5779 5788 5790 5789 5783 5776 5758 5743 5732 5720 5709 5702 5694 5690 5687 5683 5677 5672 5670 5666 5662 5656 5651 5646 5639 5633 5631 5628 5625 5622 5621 5619 5618 5619 5621 5623 5624 5628 5626 5638
5734 5761 5763 5762 5751 5731 5768 5727 5759 5770 5776 5785 5782 5778 5772 5759 5749 5733 5719 5707 5700 5694 5692 5688 5682 5676 5672 5668 5665 5656 5648 5644 5643 5640 5635 5632 5630 5626 5623 5623 5623 5623 5623 5623 5623 5624 5626 5625 5631
5751 5773 5772 5765 5748 5742 5738 5726 5748 5771 5768 5783 5778 5777 5772 5762 5748 5732 5720 5709 5701 5697 5691 5686 5681 5676 5671 5667 5662 5656 5651 5646 5643 5640 5637 5631 5627 5626 5624 5622 5625 5625 5626 5626 5625 5626 5623 5627 5629
5775 5767 5766 5758 5747 5718 5737 5730 5737 5758 5771 5774 5777 5778 5771 5758 5747 5733 5721 5710 5700 5696 5690 5685 5680 5674 5671 5668 5663 5656 5649 5645 5641 5639 5635 5631 5628 5626 5625 5624 5625 5625 5628 5630 5630 5631 5633 5638 5639
5766 5753 5717 5705 5706 5707 5748 5735 5748 5777 5782 5777 5772 5769 5763 5756 5742 5728 5716 5707 5699 5693 5688 5683 5679 5672 5669 5667 5663 5656 5648 5643 5641 5638 5633 5631 5629 5626 5624 5623 5624 5626 5630 5634 5636 5636 5637 5639 5642
5761 5746 5723 5692 5700 5718 5767 5733 5759 5781 5787 5782 5776 5769 5759 5749 5738 5726 5716 5708 5701 5693 5688 5684 5679 5672 5669 5666 5662 5658 5648 5645 5642 5638 5634 5631 5630 5628 5626 5625 5626 5629 5632 5634 5637 5640 5641 5642 5644
5757 5737 5758 5730 5744 5728 5749 5761 5776 5784 5776 5773 5768 5761 5751 5742 5733 5724 5716 5709 5702 5694 5687 5685 5679 5674 5669 5666 5662 5658 5651 5647 5642 5639 5636 5632 5633 5631 5629 5629 5630 5632 5633 5633 5634 5636 5636 5639 5643
5766 5771 5727 5729 5697 5694 5730 5746 5758 5761 5766 5767 5759 5754 5745 5739 5730 5723 5715 5709 5704 5696 5689 5686 5681 5674 5670 5668 5665 5660 5654 5651 5647 5644 5639 5634 5635 5635 5632 5631 5632 5631 5634 5636 5637 5635 5636 5637 5638
5751 5749 5748 5742 5733 5711 5707 5738 5784 5770 5767 5754 5754 5755 5743 5736 5728 5722 5717 5711 5704 5697 5691 5685 5681 5675 5670 5668 5665 5662 5658 5655 5650 5646 5641 5636 5637 5636 5635 5634 5634 5633 5634 5636 5639 5637 5637 5636 5635
5766 5754 5754 5725 5718 5735 5739 5742 5779 5775 5773 5767 5757 5751 5744 5739 5731 5725 5720 5711 5704 5697 5693 5686 5683 5678 5673 5671 5666 5662 5659 5656 5649 5646 5643 5640 5637 5638 5638 5638 5636 5636 5635 5636 5637 5638 5638 5636 5633